[[[{"header":{"parameterUnit":"kt","parameterCategory":2,"dx":1,"dy":1,"la1":30.253999710083008,"la2":30.299108505249023,"lo1":-89.0895004272461,"lo2":-89.04439544677734,"nx":28,"ny":28,"refTime":"2022-10-19T21:00:00:Z","depth":0,"parameterNumber":1,"parameterNumberName":"U-component_of_WINDS"},"data":[-1.3321,-1.3346,-1.3357,-1.339,-1.3406,-1.3431,-1.3444,-1.3462,-1.3479,-1.3512,-1.3534,-1.3548,-1.3571,-1.3601,-1.3625,-1.3632,-1.3641,-1.3642,-1.365,-1.3634,-1.3632,-1.3631,-1.3625,-1.3644,-1.3644,-1.3665,-1.3665,-1.3665,-1.3311,-1.3326,-1.3346,-1.3374,-1.3392,-1.3398,-1.342,-1.3436,-1.3459,-1.348,-1.3501,-1.3532,-1.3558,-1.3581,-1.3608,-1.3622,-1.3626,-1.3628,-1.3627,-1.3631,-1.3614,-1.3608,-1.3624,-1.3624,-1.3624,-1.3624,-1.3624,-1.3624,-1.3294,-1.3308,-1.333,-1.3353,-1.3369,-1.3388,-1.3404,-1.3421,-1.3442,-1.347,-1.348,-1.3507,-1.3531,-1.357,-1.3585,-1.3608,-1.3608,-1.3614,-1.3615,-1.3616,-1.3616,-1.3586,-1.3613,-1.3613,-1.3613,-1.3613,-1.3613,0,-1.3285,-1.3292,-1.3312,-1.3336,-1.3353,-1.3373,-1.3393,-1.3403,-1.3424,-1.3441,-1.3467,-1.3483,-1.3517,-1.3543,-1.3571,-1.3587,-1.3595,-1.3597,-1.3601,-1.3596,-1.3589,-1.3593,-1.3566,-1.3596,-1.3596,-1.3596,-1.3596,-1.3596,-1.3268,-1.3283,-1.3312,-1.3324,-1.3338,-1.3358,-1.3373,-1.339,-1.3405,-1.3433,-1.3446,-1.3472,-1.3493,-1.3534,-1.3554,-1.358,-1.3584,-1.3594,-1.3588,-1.3583,-1.3584,-1.3583,-1.3585,-1.3595,-1.3595,-1.3595,-1.3595,0,-1.3259,-1.3275,-1.3302,-1.3328,-1.3336,-1.3351,-1.3374,-1.339,-1.3404,-1.3428,-1.3435,-1.3457,-1.3483,-1.3501,-1.3534,-1.3543,-1.3572,-1.3575,-1.3564,-1.3565,-1.3576,-1.3575,-1.3609,-1.3615,-1.3595,-1.3595,-1.3595,0,-1.3251,-1.327,-1.3294,-1.3308,-1.3331,-1.3347,-1.3369,-1.3383,-1.3403,-1.3422,-1.3433,-1.3451,-1.3472,-1.3493,-1.3506,-1.3532,-1.3539,-1.3547,-1.355,-1.3546,-1.3545,-1.3554,-1.3552,-1.3557,-1.3557,-1.3556,-1.3556,0,-1.3234,-1.3268,-1.3292,-1.3303,-1.3333,-1.3344,-1.3357,-1.3379,-1.3393,-1.3415,-1.3425,-1.345,-1.3463,-1.3482,-1.3499,-1.3494,-1.3532,-1.3528,-1.354,-1.354,-1.3547,-1.3546,-1.3572,-1.3556,-1.3556,-1.3556,-1.3556,0,-1.323,-1.325,-1.3281,-1.3306,-1.3315,-1.3331,-1.3355,-1.3373,-1.3395,-1.3404,-1.3422,-1.3431,-1.3455,-1.345,-1.3484,-1.3473,-1.3486,-1.3496,-1.3497,-1.35,-1.3493,-1.3505,-1.3529,-1.3532,-1.3504,-1.3503,-1.3503,0,-1.3205,-1.3241,-1.3254,-1.3284,-1.3303,-1.3314,-1.3332,-1.3351,-1.3364,-1.3383,-1.3398,-1.342,-1.342,-1.3429,-1.3444,-1.346,-1.3475,-1.3459,-1.3487,-1.3488,-1.348,-1.3502,-1.3501,-1.3522,-1.3498,-1.3498,-1.3499,0,-1.3188,-1.3222,-1.3227,-1.3239,-1.3266,-1.3281,-1.3302,-1.3326,-1.3338,-1.3358,-1.3376,-1.3407,-1.3409,-1.3423,-1.3433,-1.3447,-1.3465,-1.3447,-1.3448,-1.3449,-1.3496,-1.3495,-1.3498,-1.3469,-1.347,-1.3471,-1.3494,0,-1.3179,-1.3198,-1.321,-1.3237,-1.3252,-1.3271,-1.3288,-1.3302,-1.3309,-1.3322,-1.3349,-1.3369,-1.3394,-1.3402,-1.3409,-1.3435,-1.3434,-1.3435,-1.343,-1.3445,-1.3453,-1.3456,-1.3417,-1.3417,-1.3417,-1.3417,0,0,-1.3151,-1.3179,-1.3192,-1.3211,-1.3224,-1.3234,-1.3253,-1.3267,-1.3295,-1.3305,-1.3303,-1.3348,-1.3364,-1.3395,-1.3401,-1.3411,-1.3417,-1.3411,-1.3438,-1.344,-1.3442,-1.3451,-1.3454,-1.3417,-1.3417,-1.3417,-1.3417,0,-1.3151,-1.3165,-1.3183,-1.3198,-1.322,-1.3232,-1.3236,-1.326,-1.3269,-1.3295,-1.3303,-1.3321,-1.3356,-1.3372,-1.3385,-1.3408,-1.3413,-1.3414,-1.3421,-1.3437,-1.3439,-1.3441,-1.345,-1.3453,-1.3417,-1.3417,-1.3417,0,-1.3137,-1.3153,-1.3163,-1.3192,-1.3207,-1.3226,-1.3226,-1.3245,-1.326,-1.3269,-1.3294,-1.3307,-1.333,-1.3357,-1.3369,-1.3368,-1.3407,-1.3398,-1.3398,-1.34,-1.3416,-1.3419,-1.3421,-1.3389,-1.3389,-1.3389,0,0,-1.3134,-1.3152,-1.3174,-1.3193,-1.3202,-1.322,-1.3231,-1.3239,-1.3258,-1.3266,-1.3282,-1.3301,-1.3322,-1.3335,-1.3355,-1.3382,-1.3388,-1.3393,-1.3395,-1.3396,-1.3398,-1.3414,-1.3417,-1.3388,-1.3388,-1.3388,0,0,-1.3133,-1.3159,-1.3163,-1.3187,-1.3205,-1.3228,-1.324,-1.3245,-1.3264,-1.3264,-1.3279,-1.3284,-1.3309,-1.3322,-1.3311,-1.3354,-1.335,-1.3352,-1.3345,-1.3346,-1.3348,-1.3344,-1.3313,0,0,0,0,0,-1.314,-1.3156,-1.3159,-1.3165,-1.3201,-1.3227,-1.3232,-1.3244,-1.324,-1.3249,-1.3264,-1.3268,-1.3319,-1.331,-1.3317,-1.3328,-1.338,-1.3381,-1.3383,-1.3379,-1.3381,-1.3382,0,0,0,0,0,0,-1.3143,-1.315,-1.3159,-1.3183,-1.3191,-1.3226,-1.3223,-1.3227,-1.324,-1.324,-1.3265,-1.3269,-1.328,-1.3308,-1.3314,-1.3324,-1.3311,-1.338,-1.3381,-1.3383,-1.3379,-1.3381,-1.3382,0,0,0,0,0,-1.3145,-1.3151,-1.3206,-1.3183,-1.319,-1.321,-1.3223,-1.3226,-1.3236,-1.3258,-1.3262,-1.3244,-1.328,-1.3285,-1.3311,-1.3321,-1.3308,-1.331,-1.3381,-1.3382,-1.3383,-1.338,0,0,0,0,0,0,-1.3146,-1.3155,-1.3207,-1.321,-1.3177,-1.3208,-1.3213,-1.3225,-1.3253,-1.3257,-1.3237,-1.3237,-1.328,-1.3284,-1.3289,-1.3319,-1.3304,-1.3306,-1.3308,-1.3382,-1.3383,-1.3383,0,0,0,0,0,0,-1.3151,-1.3157,-1.3209,-1.3201,-1.3203,-1.3206,-1.3211,-1.3234,-1.3254,-1.3231,-1.3232,-1.3237,-1.3274,-1.3284,-1.3287,-1.3323,-1.3302,-1.3304,-1.3305,-1.3306,-1.3382,-1.3383,0,0,0,0,0,0,-1.3154,-1.3159,-1.32,-1.3202,-1.3203,-1.3234,-1.3227,-1.3264,-1.3246,-1.323,-1.3245,-1.3244,-1.3273,-1.3277,-1.3286,-1.3321,-1.3323,-1.3302,-1.3303,-1.3304,-1.3305,0,0,0,0,0,0,0,-1.3156,-1.3121,-1.3191,-1.3202,-1.3204,-1.3235,-1.3236,-1.3236,-1.3246,-1.3245,-1.3245,-1.3244,-1.329,-1.3292,-1.3295,-1.3319,0,0,-1.3302,-1.3303,0,0,0,0,0,0,0,0,-1.312,-1.3121,-1.3191,-1.3192,-1.3192,-1.3235,-1.3236,-1.3236,-1.3246,-1.3245,-1.3245,-1.3245,-1.3291,-1.3293,-1.3294,0,0,0,0,0,0,0,0,0,0,0,0,0,0,0,-1.3191,-1.3192,0,-1.3235,-1.3236,-1.3236,-1.3246,-1.3245,-1.3245,-1.3245,-1.3291,-1.3293,-1.3294,0,0,0,0,0,0,0,0,0,0,0,0,0,0,0,0,0,0,0,0,0,0,0,0,0,0,0,0,0,0,0,0,0,0,0,0,0,0,0,0,0,0,0,0,0,0,0,0,0,0,0,0,0,0,0,0,0,0,0,0,0,0,0,0,0,0,0,0,0]}],[{"header":{"parameterUnit":"kt","parameterCategory":2,"dx":1,"dy":1,"la1":30.253999710083008,"la2":30.299108505249023,"lo1":-89.0895004272461,"lo2":-89.04439544677734,"nx":28,"ny":28,"refTime":"2022-10-19T21:00:00:Z","depth":0,"parameterNumber":2,"parameterNumberName":"V-component_of_WINDS"},"data":[6.926,6.9242,6.9246,6.9227,6.9227,6.9214,6.921,6.9205,6.9202,6.9186,6.9177,6.9177,6.9174,6.9163,6.9152,6.9152,6.9147,6.9138,6.914,6.9176,6.9181,6.9186,6.9191,6.9137,6.9137,6.9102,6.9102,6.9101,6.9288,6.9288,6.9279,6.9273,6.9265,6.9276,6.927,6.9263,6.925,6.9246,6.9237,6.9222,6.921,6.9209,6.9197,6.9187,6.9191,6.9184,6.9184,6.9184,6.9222,6.9228,6.9182,6.9182,6.9182,6.9182,6.9182,6.9182,6.9339,6.9328,6.9327,6.9317,6.9314,6.9309,6.9299,6.93,6.929,6.928,6.9285,6.927,6.9265,6.9251,6.9247,6.9234,6.9242,6.9235,6.9233,6.9231,6.9229,6.928,6.9232,6.9232,6.9232,6.9233,6.9233,0,6.9378,6.9382,6.9373,6.9366,6.9358,6.9352,6.9347,6.934,6.9348,6.9339,6.9326,6.9318,6.9303,6.929,6.9279,6.9276,6.9284,6.9285,6.928,6.9277,6.9277,6.9277,6.934,6.9286,6.9286,6.9286,6.9287,6.9287,6.943,6.9416,6.9416,6.9409,6.9407,6.9396,6.939,6.9397,6.939,6.9383,6.9372,6.9359,6.935,6.9326,6.9326,6.9313,6.9317,6.9296,6.9315,6.9314,6.9316,6.9317,6.9315,6.9292,6.9291,6.9291,6.929,0,6.9459,6.9465,6.9444,6.9445,6.9444,6.9429,6.9429,6.9417,6.9419,6.9403,6.9399,6.9401,6.9387,6.939,6.9373,6.9375,6.9348,6.9352,6.9351,6.9351,6.9333,6.9334,6.9272,6.9264,6.932,6.9319,6.9319,0,6.9505,6.9486,6.9496,6.9484,6.9463,6.9472,6.9451,6.945,6.9447,6.9434,6.9444,6.9432,6.9437,6.9424,6.9426,6.9405,6.9402,6.9401,6.9402,6.94,6.94,6.9395,6.9397,6.9404,6.9404,6.9405,6.9405,0,6.955,6.9532,6.9513,6.951,6.9507,6.9498,6.9496,6.9491,6.9484,6.9475,6.9471,6.9459,6.9452,6.9443,6.9446,6.9459,6.9419,6.9437,6.9419,6.9419,6.9409,6.941,6.9355,6.9405,6.9405,6.9405,6.9406,0,6.9588,6.9581,6.9551,6.955,6.9544,6.9531,6.9521,6.951,6.9504,6.9506,6.9498,6.9505,6.9486,6.9504,6.9479,6.9495,6.9487,6.9485,6.9484,6.9481,6.9501,6.947,6.9418,6.9412,6.9481,6.9481,6.9482,0,6.9637,6.9609,6.9616,6.9587,6.9575,6.9588,6.9573,6.9568,6.9568,6.9556,6.9556,6.9541,6.9555,6.9551,6.9538,6.9536,6.9515,6.9539,6.9519,6.9519,6.9521,6.9474,6.9465,6.9429,6.949,6.9489,6.9488,0,6.9676,6.9674,6.9668,6.9665,6.9661,6.9649,6.9632,6.962,6.9612,6.9604,6.9589,6.9569,6.9578,6.9571,6.9574,6.956,6.953,6.9572,6.9572,6.9564,6.9494,6.9486,6.948,6.9535,6.9534,6.9533,6.9495,0,6.9732,6.9719,6.9704,6.9695,6.9687,6.9669,6.9674,6.9664,6.967,6.967,6.9648,6.9642,6.9628,6.9621,6.9625,6.9593,6.9599,6.9609,6.9625,6.9594,6.9581,6.9576,6.9644,6.9645,6.9645,6.9645,0,0,6.9778,6.9759,6.9767,6.975,6.9744,6.9758,6.9738,6.9733,6.9722,6.9717,6.9727,6.9697,6.9691,6.9662,6.9653,6.9647,6.9641,6.9651,6.9609,6.9605,6.9601,6.9588,6.9582,6.9646,6.9646,6.9646,6.9647,0,6.98,6.9797,6.9778,6.9774,6.9768,6.977,6.9765,6.9761,6.976,6.9738,6.9748,6.9734,6.9709,6.9702,6.9695,6.9656,6.9663,6.9651,6.9629,6.9613,6.9609,6.9605,6.959,6.9585,6.9648,6.9648,6.9648,0,6.9839,6.9837,6.9828,6.9815,6.9811,6.9796,6.9816,6.98,6.9789,6.9802,6.978,6.9776,6.9767,6.9739,6.9727,6.9735,6.9682,6.9699,6.9696,6.9694,6.9679,6.9674,6.9669,6.9734,6.9734,6.9734,0,0,6.9856,6.9844,6.9843,6.982,6.9817,6.9819,6.9811,6.9816,6.9809,6.9805,6.9801,6.9793,6.9778,6.9768,6.9755,6.9724,6.9722,6.9709,6.9705,6.9702,6.9698,6.9682,6.9677,6.9735,6.9735,6.9735,0,0,6.9864,6.9864,6.9871,6.9845,6.9838,6.9835,6.982,6.9828,6.9816,6.9818,6.9823,6.9821,6.9795,6.9791,6.9806,6.976,6.9777,6.9773,6.9764,6.9759,6.9755,6.9756,6.9823,0,0,0,0,0,6.9889,6.9864,6.9871,6.9867,6.9849,6.9832,6.9829,6.9834,6.9846,6.9834,6.9832,6.984,6.98,6.9814,6.9809,6.9791,6.975,6.9747,6.9745,6.9726,6.972,6.9716,0,0,0,0,0,0,6.9887,6.9883,6.9871,6.9867,6.9863,6.9832,6.9854,6.9855,6.9847,6.985,6.9841,6.984,6.9842,6.9816,6.9812,6.9795,6.9824,6.9749,6.9747,6.9745,6.9724,6.9719,6.9716,0,0,0,0,0,6.9886,6.9882,6.9853,6.9867,6.9864,6.9864,6.9855,6.9856,6.985,6.9846,6.9846,6.9854,6.9842,6.9838,6.9814,6.9797,6.9828,6.9826,6.9747,6.9746,6.9744,6.9722,0,0,0,0,0,0,6.9885,6.9882,6.9852,6.9851,6.9877,6.9866,6.9865,6.9857,6.9847,6.9847,6.986,6.9862,6.9841,6.9838,6.9835,6.9798,6.983,6.9828,6.9827,6.9746,6.9745,6.9744,0,0,0,0,0,0,6.9884,6.9881,6.9852,6.9864,6.9864,6.9867,6.9866,6.9845,6.9847,6.9862,6.9863,6.9861,6.9844,6.9838,6.9836,6.9803,6.9832,6.983,6.9829,6.9829,6.9745,6.9744,0,0,0,0,0,0,6.9883,6.988,6.9864,6.9865,6.9865,6.9855,6.9849,6.983,6.986,6.9862,6.9862,6.9864,6.9844,6.9842,6.9837,6.9805,6.9804,6.9832,6.9831,6.983,6.983,0,0,0,0,0,0,0,6.9882,6.9898,6.9858,6.9865,6.9866,6.9843,6.9842,6.9842,6.986,6.9861,6.9862,6.9863,6.9841,6.984,6.9838,6.9806,0,0,6.9832,6.9831,0,0,0,0,0,0,0,0,6.9899,6.9898,6.9858,6.9858,6.9858,6.9843,6.9842,6.9842,6.986,6.9861,6.9862,6.9863,6.9841,6.9839,6.9838,0,0,0,0,0,0,0,0,0,0,0,0,0,0,0,6.9858,6.9858,0,6.9843,6.9842,6.9842,6.986,6.9861,6.9862,6.9862,6.984,6.9839,6.9838,0,0,0,0,0,0,0,0,0,0,0,0,0,0,0,0,0,0,0,0,0,0,0,0,0,0,0,0,0,0,0,0,0,0,0,0,0,0,0,0,0,0,0,0,0,0,0,0,0,0,0,0,0,0,0,0,0,0,0,0,0,0,0,0,0,0,0,0,0]}]]]